sat.trackr.live / text

‹ back to catalog

STARLINK-1329

NORAD 45531 · 2020-025A

PAYLOAD ACTIVE UNKNOWN

§ Identity

Operator
Country
US
Launch date
2020-04-22
Launch site
AFETR
Launch vehicle
Mass (kg)
RCS (m²)

Purposes: comms

External: N2YO · Heavens-Above · Gunter

§ Orbital elements

Epoch: 2026-05-25T03:40:16.093920Z

Period
91.65 min
Inclination
53.0421°
Eccentricity
0.0004734
Mean motion
15.71164725 rev/d
Perigee alt
352.4 km
Apogee alt
358.8 km
Semi-major
6,733.7 km
B*
4.9493e-4
RAAN
65.3999°
Arg perigee
92.4475°
Mean anomaly
267.7084°
Rev number
33,743

§ Raw data

STARLINK-13291 45531U 20025A   26145.15296405  .00063640  00000+0  49493-3 0  99972 45531  53.0421  65.3999 0004734  92.4475 267.7084 15.71164725337438

JSON: /api/v1/satellites/45531 · /tle

For live sub-satellite position, see the globe view (requires WebGL).

§ Visibility from observer

Set your observer location to see the next 7 days of passes ≥ 10°. The values pass through the URL so the page stays shareable.

No JS? Fill the form by hand. The geolocation button needs JavaScript.